Location: Cheching
(60.0667°N, 164.2167°W)
Time: 10:50:16
(UTC+00:00)

NOAA 19 - Pass Details

Date: 17 January 2021
Orbit: 840 x 862 km, 99.2° (Epoch: 26 February)

Event Time Altitude Azimuth Distance (km) Brightness Sun altitude
Rises 18:08:14 0° 19° (NNE) 3,440 8.3 -10.5°
Reaches altitude 10° 18:10:38 10° 21° (NNE) 2,497 7.6 -10.2°
Maximum altitude 18:16:11 75° 107° (ESE) 884 5.5 -9.6°
Drops below altitude 10° 18:21:40 10° 194° (SSW) 2,467 7.8 -8.9°
Sets 18:24:01 0° 196° (SSW) 3,396 8.5 -8.7°
